Content
SEND FEEDBACK

Daily
Averages
Monthly
Summary
Thailand

UBON RATCHATHANI, THAILAND


Home > Asia > Thailand
Elevation: 400 feet     Latitude: 15 14N     Longitude: 104 52E

WEATHER
 
SELECT A DAY
Number of Records: 90,607;   Date Range: 5/4/01 - 7/22/14
 
SHARE

PRINT THIS DATA

[ ← Previous Day ]
WEATHER ALMANAC - JANUARY 31, 2013
[ Next Day → ]
[ °C ]   °F
Weather ElementAverageHighLow
Temperature79.9 °F91.4 °F (3:00 pm)69.8 °F (6:00 am)
Dewpoint64.8 °F68 °F (7:00 pm)60.8 °F (2:00 pm)
Humidity61.6 %88 % (6:00 am)32 % (1:00 pm)
Barometer29.97 in30.06 in (10:00 am)29.89 in (4:00 pm)
Wind Speed3.7 mph10.4 mph (10:00 pm)
Weather ElementAverage
Visibility5.2 mi
Wind DirectionSSE (157.9 °)

Weather ElementTotal
Precipitation---
Cooling Degree Days15.6 (Base 65)
Growing Degree Days30.6 (Base 50)
Averaged from 28 records on January 31, 2013
WEATHER CONDITIONS BREAKOUT
WIND DIRECTION BREAKOUT
WEATHER BY HOUR - JANUARY 31, 2013
[ °C ]   °F
Local TimeTemperatureDewpointHumidityBarometerVisibilityWind DirectionWind SpeedGust SpeedPrecipitationEventsConditions
1:00 AM74.0 °F67.0 °F72 %29.94 in4.0 miNNE (20°)2.3 mphMist
1:00 AM75.2 °F66.2 °F73 %29.92 in4.3 miNNE (20°)3.5 mph
2:00 AM73.4 °F66.2 °F78 %29.92 in4.3 miEast (80°)5.8 mph
3:00 AM71.6 °F66.2 °F83 %29.95 in4.3 miNorth (10°)4.6 mph
4:00 AM71.6 °F66.2 °F83 %29.95 in4.3 miNE (40°)3.5 mph
5:00 AM71.6 °F66.2 °F83 %29.95 in4.3 miNNE (20°)3.5 mph
6:00 AM69.8 °F66.2 °F88 %29.98 in4.3 miNorth (360°)2.3 mph
6:30 AM69.8 °F66.2 °F88 %30.01 in4.3 miWNW (300°)2.3 mph
7:00 AM70.0 °F65.0 °F81 %30.01 in4.0 miNNE (30°)2.3 mphMist
7:00 AM69.8 °F66.2 °F88 %30.01 in4.3 miNNE (30°)3.5 mph
8:00 AM71.6 °F64.4 °F78 %30.04 in5.0 miNE (40°)3.5 mph
9:00 AM75.2 °F64.4 °F69 %30.04 in5.0 miEast (90°)3.5 mph
10:00 AM80.6 °F64.4 °F58 %30.06 in5.6 miSE (130°)5.8 mph
11:00 AM84.2 °F64.4 °F51 %30.04 in6.2 miSouth (170°)3.5 mph
12:00 PM86.0 °F62.6 °F45 %30.01 in6.2 miSE (140°)4.6 mph
1:00 PM88.0 °F62.0 °F32 %29.97 in6.0 miEast (100°)3.5 mphScattered Clouds
1:00 PM87.8 °F62.6 °F43 %29.98 in6.2 miEast (100°)3.5 mphMostly Cloudy
2:00 PM89.6 °F60.8 °F38 %29.95 in6.2 miSSE (160°)4.6 mphMostly Cloudy
3:00 PM91.4 °F62.6 °F38 %29.92 in6.2 miEast (90°)3.5 mphMostly Cloudy
4:00 PM91.4 °F64.4 °F41 %29.89 in6.2 miNNW (330°)3.5 mphMostly Cloudy
5:00 PM89.6 °F62.6 °F40 %29.92 in5.6 miNW (310°)3.5 mphMostly Cloudy
5:30 PM87.8 °F62.6 °F43 %29.92 in5.6 miNW (310°)3.5 mphMostly Cloudy
6:00 PM86.0 °F64.4 °F48 %29.92 in5.6 miWest (260°)2.3 mphMostly Cloudy
7:00 PM85.0 °F68.0 °F48 %29.96 in6.0 miESE (110°)2.3 mphHaze
7:00 PM84.2 °F66.2 °F55 %29.95 in5.6 miESE (110°)2.3 mphMostly Cloudy
8:00 PM84.2 °F66.2 °F55 %29.95 in5.6 miNorth (350°)3.5 mphMostly Cloudy
9:00 PM80.6 °F66.2 °F61 %29.98 in5.6 miNorth (360°)2.3 mphMostly Cloudy
10:00 PM77.0 °F64.4 °F65 %29.98 in5.6 miNorth (350°)10.4 mphMostly Cloudy
Hourly data recorded from VTUU, located miles away from Ubon Ratchathani, Thailand







STORIES FROM OUR PARTNERS